Location: Ethel Rock
(53.4667°N, 4.5667°W)
Time: 01:05:38
(UTC+00:00)

Cosmos 1606 Rocket - Pass Details

Date: 24 October 2020
Orbit: 604 x 631 km, 82.5° (Epoch: 26 November)

Event Time Altitude Azimuth Distance (km) Brightness Sun altitude
Rises 05:17:07 0° 348° (NNW) 2,928 6.9 -16.3°
Reaches altitude 10° 05:19:21 10° 348° (NNW) 2,020 6.1 -15.9°
Maximum altitude 05:23:51 86° 264° (W) 641 3.5 -15.3°
Drops below altitude 10° 05:28:19 10° 172° (S) 2,011 6.3 -14.6°
Sets 05:30:33 0° 172° (S) 2,914 7.1 -14.3°
